Powrót do katalogu

STARLINK-35026

AktywnyŁącznośćVLEO
NORAD 65514·PAYLOAD·🇺🇸 United States

Wystrzelony Sep 5, 2025 z Cape Canaveral Space Force Station

Loading…

Następne Przeloty (najbliższe 24 godziny)

TLE

ŚwieżeSource: CelesTrak SupGP

Epoka: Sep 15, 2026, 02:51 UTC

1 65514C 25198Y   26258.11923611  .00017427  00000+0  51497-3 0  2580
2 65514  53.1562 108.5636 0001241  87.3610  89.2311 15.34376042    17

Śledź STARLINK-35026 w czasie rzeczywistym z AllMySat

Download on the App Store